Location: Caltech
(34.1382°N, 118.1253°W)
Time: 12:23:37
(UTC-08:00)

AO-7 - Pass Details

Date: 22 March 2018
Orbit: 1439 x 1459 km, 101.7° (Epoch: 16 November)

Event Time Altitude Azimuth Distance (km) Brightness Sun altitude
Rises 03:34:18 0° 26° (NNE) 4,539 ? -39.7°
Reaches altitude 10° 03:37:24 10° 34° (NE) 3,557 ? -39.2°
Maximum altitude 03:44:55 38° 100° (E) 2,077 ? -37.9°
Enters shadow 03:49:05 24° 148° (SSE) 2,625 ? -37.2°
